Location: Mareeba Aerodrome
(17.0701°S, 145.4240°E)
Time: 08:11:00
(UTC+10:00)

Envisat - Visible Passes

Search period start: 01 October 2022 00:00
Search period end: 11 October 2022 00:00
Orbit: 763 x 765 km, 98.2° (Epoch: 30 September)

Date Brightness Start Highest point End Pass type
(mag) Time Alt. Az. Time Alt. Az. Time Alt. Az.
01 Oct 3.4 03:56:40 57° SE 03:56:40 57° SE 04:01:11 10° S visible
02 Oct 5.1 03:18:41 22° E 03:19:23 23° ESE 03:23:18 10° SSE visible
02 Oct 4.0 04:58:50 23° W 04:58:50 23° W 05:02:13 10° SW visible
03 Oct 2.8 04:16:09 10° N 04:21:11 67° W 04:26:15 10° SSW visible
04 Oct 4.0 03:42:39 33° ENE 03:44:20 44° ESE 03:49:11 10° S visible
04 Oct 4.7 05:22:46 11° WNW 05:23:18 12° W 05:25:01 10° WSW visible
05 Oct 5.6 03:04:27 10° ENE 03:07:37 17° ESE 03:10:47 10° SE visible
05 Oct 3.6 04:41:45 10° NNW 04:46:16 33° W 04:50:50 10° SW visible
06 Oct 2.9 04:04:16 10° NNE 04:09:20 89° ESE 04:14:28 10° SSW visible
07 Oct 4.6 03:28:02 10° NE 03:32:32 32° ESE 03:37:03 10° SSE visible
07 Oct 4.4 05:08:17 10° NW 05:11:24 16° W 05:14:33 10° WSW visible
08 Oct 5.9 02:53:59 10° E 02:55:51 12° ESE 02:57:46 10° SE visible
08 Oct 3.2 04:29:35 10° N 04:34:24 45° W 04:39:17 10° SSW visible
09 Oct 3.3 03:52:29 10° NNE 03:57:30 66° ESE 04:02:34 10° S visible
10 Oct 5.1 03:16:43 10° NE 03:20:45 24° ESE 03:24:47 10° SSE visible
10 Oct 4.0 04:55:36 10° NNW 04:59:31 23° W 05:03:28 10° SW visible
